Weather in Gangtok

India     27°19′25″N   88°36′34″E
temp.,
°C
wind,
m/s
gust,
m/s
humid.,
%
clouds,
%
prec.,
mm/h
press.,
hPa
HPBL,
m
9 march, tue
tue923:30+14n2264100 0.1 101771
02:30+12nne227158 0.1 101639
05:30+11n126631 0.1 101626
08:30+21ssw113823 0.0 1017665
11:30+25ssw223017 0.0 10162109
14:30+21sw333876 0.1 10131770
17:30+17nne235087 0.1 1014114
20:30+15n225591 0.0 101883
10 march, wed
wed1023:30+14nne235469 0.0 101850
02:30+13nne225316 0.0 101633
05:30+12nne225110 0.0 101730
08:30+22sw11312 0.0 1018543
11:30+26s22241 0.0 10162482
14:30+22sw223561 0.0 10131642
17:30+19nne224672 0.2 101457
20:30+16n355394 0.1 1017217
11 march, thu
thu1123:30+14n335656 0.1 101758
02:30+13n33500 0.0 101670
05:30+12nne23500 0.0 101836
08:30+22nw11280 0.0 1019555
11:30+27ssw22210 0.0 10172804
14:30+22nw333364 0.1 10141621
17:30+19ne124069 0.1 101638
20:30+15nne23491 0.0 101942
12 march, fri
fri1223:30+14nne33430 0.0 102053
02:30+14nne23420 0.0 101948
05:30+13nne22450 0.0 102031
08:30+24wnw01240 0.0 1020526
11:30+28ssw21190 0.0 10182340
14:30+28s32210 0.0 10153146
17:30+21nw013944 0.0 101624
20:30+20nne234078 0.0 101983
13 march, sat
sat1323:30+18nne234188 0.0 102076
02:30+16nne234433 0.0 101846
05:30+15nne224421 0.0 101937
08:30+25nw01245 0.0 1019554
11:30+28sw222152 0.0 10162834
14:30+22nne2337100 0.6 10131070
17:30+15n3478100 8.7 1013357
20:30+14n337289 0.4 101563